Location: Claremont
(33.9858°S, 18.4575°E)
Time: 12:00:39
(UTC+00:00)

Cosmos 1862 Rocket - Pass Details

Date: 03 March 2021
Orbit: 603 x 634 km, 82.5° (Epoch: 09 April)

Event Time Altitude Azimuth Distance (km) Brightness Sun altitude
Rises 17:44:20 0° 16° (NNE) 2,892 6.7 -5.8°
Reaches altitude 10° 17:46:44 10° 26° (NNE) 1,989 5.8 -6.3°
Maximum altitude 17:50:40 33° 89° (E) 1,063 4.3 -7.1°
Drops below altitude 10° 17:54:37 10° 152° (SSE) 1,998 6.0 -7.9°
Sets 17:57:00 0° 162° (SSE) 2,907 7.0 -8.4°
